This is the latest recevied weather packets stored in our database for station/object AC1IX. If no packets are shown the sender has not sent any weather packets the latest 10 day(s).
| Time | Temp. | Humidity | Pressure | Rain* | Wind** | Luminosity | Snow |
|---|---|---|---|---|---|---|---|
| 1778102908 | 15° C | 99% | 1005.4 hPa | 0 mm | - | 19 W/m² | - |
| 1778102603 | 15° C | 99% | 1005.5 hPa | 0 mm | - | 62 W/m² | - |
| 1778102298 | 15° C | 99% | 1005.4 hPa | 0 mm | - | 81 W/m² | - |
| 1778101995 | 15° C | 99% | 1005.6 hPa | 1.78 mm | - | 47 W/m² | - |
| 1778101693 | 15° C | 99% | 1005.5 hPa | 1.78 mm | - | 35 W/m² | - |
| 1778101389 | 14.44° C | 99% | 1005.5 hPa | 0 mm | - | 59 W/m² | - |
| 1778101086 | 15° C | 99% | 1005.7 hPa | 0 mm | - | 12 W/m² | - |
| 1778100782 | 15° C | 99% | 1005.7 hPa | 0 mm | - | 21 W/m² | - |
| 1778100478 | 15° C | 99% | 1005.7 hPa | 0 mm | - | 12 W/m² | - |
| 1778100177 | 15° C | 99% | 1005.8 hPa | 0 mm | - | 23 W/m² | - |
| 1778099874 | 15° C | 99% | 1006 hPa | 0 mm | - | 42 W/m² | - |
| 1778099571 | 14.44° C | 99% | 1005.8 hPa | 0 mm | - | 35 W/m² | - |
| 1778099268 | 14.44° C | 99% | 1005.9 hPa | 1.27 mm | - | 36 W/m² | - |
| 1778098965 | 14.44° C | 99% | 1006.1 hPa | 3.05 mm | - | 27 W/m² | - |
| 1778098661 | 14.44° C | 99% | 1006.1 hPa | 3.05 mm | - | 24 W/m² | - |
| 1778098358 | 15° C | 99% | 1006.1 hPa | 3.05 mm | - | 24 W/m² | - |
| 1778098055 | 15° C | 99% | 1006.1 hPa | 1.78 mm | - | 25 W/m² | - |
| 1778097752 | 15° C | 99% | 1006.4 hPa | 0 mm | - | 55 W/m² | - |
| 1778097448 | 14.44° C | 99% | 1006.2 hPa | 0 mm | - | 35 W/m² | - |
| 1778097145 | 14.44° C | 99% | 1006.5 hPa | 0 mm | - | 39 W/m² | - |
| 1778096842 | 14.44° C | 99% | 1006.4 hPa | 1.27 mm | - | 42 W/m² | - |
| 1778096538 | 14.44° C | 99% | 1006.2 hPa | 1.27 mm | - | 55 W/m² | - |
| 1778096236 | 15° C | 99% | 1006.4 hPa | 0 mm | - | 43 W/m² | - |
| 1778095933 | 14.44° C | 99% | 1006.2 hPa | 0 mm | - | 58 W/m² | - |
| 1778095629 | 14.44° C | 99% | 1006.4 hPa | 0 mm | - | 39 W/m² | - |
* Rain latest hour (hover to see other rain measurements)
** Current wind speed in m/s (hover to see current wind gust speed)